Weather History for Casper, WY

Change the Weather History Date:

Saturday, February 9, 2013

  Actual Average Record
Temperature  
Mean Temperature 26 °F 25 °F  
Max Temperature 28 °F 36 °F 63 °F (1996)
Min Temperature 24 °F 15 °F -22 °F (1982)
Degree Days  
Heating Degree Days 39 40  
Month to date heating degree days 289 360  
Since 1 July heating degree days 4240 4737  
Cooling Degree Days 0 0  
Month to date cooling degree days 0 0  
Year to date cooling degree days 0 0  
Moisture  
Dew Point 22 °F    
Average Humidity 84    
Maximum Humidity 92    
Minimum Humidity 75    
Precipitation  
Precipitation 0.20 in 0.02 in 0.35 in (1960)
Month to date precipitation 0.21 0.17  
Year to date precipitation 0.48 0.68  
Snow  
Snow 5.10 in 0.40 in - ()
Month to date snowfall 5.1 3.1  
Since 1 July snowfall 28.3 42.7  
Snow Depth 5.00 in    
Sea Level Pressure  
Sea Level Pressure 29.72 in    
Wind  
Wind Speed 12 mph (NNE)    
Max Wind Speed 17 mph    
Max Gust Speed 22 mph    
Visibility 4 miles    
Events Fog , Snow    
T = Trace of Precipitation, MM = Missing Value Source: NWS Daily Summary

Daily Weather History Graph

Daily Weather History Graph

Search for Another Location

Airport:

Trip Planner

Search our weather history database for the weather conditions in past years. The results will help you decide how hot, cold, wet, or windy it might be!

Date:

Astronomy

Feb. 09, 2013 Rise Set
Actual Time 7:10 AM MST 5:29 PM MST
Civil Twilight 6:41 AM MST 5:59 PM MST
Nautical Twilight 6:08 AM MST 6:32 PM MST
Astronomical Twilight 5:35 AM MST 7:05 PM MST
Moon 6:24 AM MST (2/9) 5:16 PM MST (2/9)
Length of Visible Light 11h 17m
Length of Day
10h 19m
Waning Crescent, 0% of the Moon is Illuminated
Feb 9
Waning Crescent
Feb 10
New
Feb 17
First Quarter
Feb 25
Full
Mar 4
Last Quarter

Hourly Weather History & Observations

Time (MST) Temp. Windchill Dew Point Humidity Pressure Visibility Wind Dir Wind Speed Gust Speed Precip Events Conditions
12:53 AM 28.0 °F 18.6 °F 21.0 °F 75% 29.78 in 9.0 mi ENE 10.4 mph - 0.00 in   Overcast
1:15 AM 26.6 °F 19.1 °F 21.2 °F 80% 29.77 in 7.0 mi ENE 6.9 mph - 0.00 in Snow Light Snow
1:23 AM 26.6 °F 20.0 °F 21.2 °F 80% 29.77 in 10.0 mi ENE 5.8 mph - 0.00 in   Mostly Cloudy
1:53 AM 25.0 °F 16.3 °F 19.9 °F 81% 29.78 in 10.0 mi NNE 8.1 mph - 0.00 in   Mostly Cloudy
2:53 AM 26.1 °F 16.2 °F 21.0 °F 81% 29.77 in 10.0 mi NNE 10.4 mph - N/A   Overcast
3:53 AM 25.0 °F 14.8 °F 19.9 °F 81% 29.77 in 10.0 mi NNE 10.4 mph - 0.00 in   Overcast
4:53 AM 24.1 °F 13.1 °F 21.0 °F 88% 29.77 in 10.0 mi North 11.5 mph - N/A   Overcast
5:53 AM 24.1 °F 13.7 °F 21.0 °F 88% 29.78 in 10.0 mi NNE 10.4 mph - N/A   Overcast
6:53 AM 24.1 °F 13.1 °F 21.0 °F 88% 29.79 in 10.0 mi NNE 11.5 mph - N/A   Overcast
7:53 AM 25.0 °F 16.3 °F 21.0 °F 85% 29.80 in 10.0 mi NE 8.1 mph - N/A   Overcast
8:28 AM 24.8 °F 14.6 °F 21.2 °F 86% 29.73 in 10.0 mi ENE 10.4 mph - N/A   Overcast
8:53 AM 26.1 °F 16.2 °F 21.9 °F 84% 29.81 in 10.0 mi NE 10.4 mph - N/A   Overcast
9:37 AM 26.6 °F 15.2 °F 21.2 °F 80% 29.73 in 10.0 mi NE 13.8 mph - N/A   Overcast
9:53 AM 26.1 °F 15.6 °F 21.0 °F 81% 29.81 in 10.0 mi NNE 11.5 mph - N/A   Overcast
10:20 AM 26.6 °F 14.7 °F 21.2 °F 80% 29.72 in 1.8 mi NNE 15.0 mph - 0.00 in Snow Light Snow
10:38 AM 26.6 °F 14.7 °F 21.2 °F 80% 29.72 in 0.8 mi NNE 15.0 mph - 0.00 in Snow Light Snow
10:53 AM 26.1 °F 14.5 °F 21.9 °F 84% 29.80 in 1.0 mi NNE 13.8 mph - 0.00 in Snow Light Snow
11:45 AM 26.6 °F 15.2 °F 23.0 °F 86% 29.70 in 0.8 mi North 13.8 mph - 0.01 in Snow Light Snow
11:53 AM 27.0 °F 15.2 °F 23.0 °F 85% 29.78 in 0.8 mi NNE 15.0 mph - 0.01 in Snow Light Snow
12:39 PM 26.6 °F 15.2 °F 23.0 °F 86% 29.67 in 1.0 mi North 13.8 mph - 0.01 in Snow Light Snow
12:53 PM 27.0 °F 16.1 °F 23.0 °F 85% 29.74 in 1.0 mi North 12.7 mph - 0.01 in Snow Light Snow
1:08 PM 26.6 °F 15.7 °F 23.0 °F 86% 29.66 in 0.8 mi North 12.7 mph - 0.01 in Snow Light Snow
1:10 PM 26.6 °F 15.7 °F 23.0 °F 86% 29.66 in 1.0 mi North 12.7 mph - 0.01 in Snow Light Snow
1:25 PM 26.6 °F 15.2 °F 23.0 °F 86% 29.65 in 1.0 mi North 13.8 mph - 0.01 in Snow Light Snow
1:53 PM 27.0 °F 15.6 °F 23.0 °F 85% 29.73 in 0.5 mi North 13.8 mph - 0.02 in Fog , Snow Snow
2:15 PM 26.6 °F 14.3 °F 23.0 °F 86% 29.64 in 0.5 mi North 16.1 mph - 0.01 in Fog , Snow Snow
2:41 PM 26.6 °F 14.7 °F 23.0 °F 86% 29.63 in 0.5 mi North 15.0 mph - 0.03 in Fog , Snow Snow
2:53 PM 27.0 °F 15.6 °F 24.1 °F 89% 29.70 in 0.5 mi North 13.8 mph - 0.04 in Fog , Snow Light Snow
3:01 PM 26.6 °F 14.7 °F 24.8 °F 93% 29.62 in 0.8 mi North 15.0 mph - 0.00 in Snow Light Snow
3:08 PM 26.6 °F 14.7 °F 23.0 °F 86% 29.63 in 1.0 mi North 15.0 mph - 0.00 in Snow Light Snow
3:53 PM 27.0 °F 15.6 °F 23.0 °F 85% 29.72 in 1.0 mi NNE 13.8 mph - 0.01 in Snow Light Snow
4:12 PM 26.6 °F 17.5 °F 23.0 °F 86% 29.63 in 0.8 mi NNE 9.2 mph - 0.00 in Snow Light Snow
4:53 PM 27.0 °F 20.5 °F 23.0 °F 85% 29.73 in 0.5 mi ENE 5.8 mph - 0.03 in Fog , Snow Snow
5:05 PM 26.6 °F 19.1 °F 23.0 °F 86% 29.65 in 0.2 mi ENE 6.9 mph - 0.01 in Fog , Snow Heavy Snow
5:43 PM 24.8 °F 15.3 °F 21.2 °F 86% 29.66 in 0.5 mi NE 9.2 mph - 0.04 in Fog , Snow Snow
5:53 PM 25.0 °F 14.8 °F 21.9 °F 88% 29.76 in 0.8 mi NE 10.4 mph - 0.05 in Snow Light Snow
6:00 PM 24.8 °F 14.0 °F 21.2 °F 86% 29.67 in 0.8 mi NE 11.5 mph - 0.00 in Snow Light Snow
6:07 PM 24.8 °F 14.0 °F 21.2 °F 86% 29.67 in 1.0 mi NNE 11.5 mph - 0.01 in Snow Light Snow
6:15 PM 24.8 °F 13.4 °F 21.2 °F 86% 29.67 in 1.0 mi NNE 12.7 mph - N/A Snow Light Snow
6:53 PM 25.0 °F 14.2 °F 21.0 °F 85% 29.76 in 1.5 mi NNE 11.5 mph - 0.03 in Snow Light Snow
7:06 PM 24.8 °F 13.4 °F 21.2 °F 86% 29.67 in 1.8 mi NNE 12.7 mph - 0.00 in Snow Light Snow
7:15 PM 24.8 °F 12.9 °F 21.2 °F 86% 29.66 in 2.0 mi North 13.8 mph - 0.00 in Snow Light Snow
7:35 PM 24.8 °F 12.9 °F 21.2 °F 86% 29.66 in 3.0 mi North 13.8 mph - 0.00 in Snow Light Snow
7:53 PM 25.0 °F 13.1 °F 21.0 °F 85% 29.76 in 4.0 mi North 13.8 mph - 0.00 in Snow Light Snow
8:53 PM 25.0 °F 13.1 °F 21.0 °F 85% 29.75 in 6.0 mi North 13.8 mph - 0.00 in   Overcast
9:37 PM 24.8 °F 12.9 °F 21.2 °F 86% 29.67 in 2.0 mi North 13.8 mph - 0.00 in Snow Light Snow
9:53 PM 25.0 °F 13.6 °F 21.0 °F 85% 29.75 in 2.0 mi North 12.7 mph - 0.00 in Snow Light Snow
10:00 PM 24.8 °F 13.4 °F 21.2 °F 86% 29.67 in 3.0 mi North 12.7 mph - 0.00 in Snow Light Snow
10:53 PM 25.0 °F 14.8 °F 21.0 °F 85% 29.76 in 3.0 mi North 10.4 mph - 0.00 in Snow Light Snow
10:56 PM 24.8 °F 14.6 °F 21.2 °F 86% 29.67 in 2.5 mi North 10.4 mph - 0.00 in Snow Light Snow
11:06 PM 24.8 °F 12.9 °F 21.2 °F 86% 29.67 in 3.0 mi North 13.8 mph - 0.00 in Snow Light Snow
11:30 PM 24.8 °F 12.4 °F 21.2 °F 86% 29.67 in 4.0 mi North 15.0 mph - 0.00 in   Overcast
11:53 PM 24.1 °F 11.0 °F 21.0 °F 88% 29.77 in 7.0 mi North 16.1 mph - 0.00 in   Overcast